E25RIV-1 Weather Reports


time (UTC)temp
C
wind
direction
speed
KPH
gust
KPH
rain 1hr
cm
rain 24hr
cm
rain mn
cm
humidity
%
barometer
mb
20260502130120 30 0 0.0 0.0 0.00 0.00 0.00 99 1002.0
20260502123008 30 0 0.0 0.0 0.00 0.00 0.00 99 1002.0
20260502121944 30 0 0.0 0.0 0.00 0.00 0.00 99 1002.0
20260502120920 30 0 0.0 0.0 0.00 0.00 0.00 99 1002.0
20260502115856 30 0 0.0 0.0 0.00 0.00 0.00 99 1002.0
20260502114832 30 0 0.0 0.0 0.00 0.00 0.00 98 1002.0
20260502113808 31 0 0.0 0.0 0.00 0.00 0.00 94 1001.0
20260502112744 31 0 0.0 0.0 0.00 0.00 0.00 92 1001.0
20260502111720 31 0 0.0 0.0 0.00 0.00 0.00 87 1001.0
20260502110656 31 0 0.0 0.0 0.00 0.00 0.00 85 1000.0
20260502105632 31 0 0.0 0.0 0.00 0.00 0.00 79 999.0
20260502104608 32 0 0.0 0.0 0.00 0.00 0.00 81 999.0
20260502103544 32 0 0.0 0.0 0.00 0.00 0.00 84 1000.0
20260502102520 32 0 0.0 0.0 0.00 0.00 0.00 80 999.0
20260502101456 32 0 0.0 0.0 0.00 0.00 0.00 80 999.0
20260502100432 31 0 0.0 0.0 0.00 0.00 0.00 80 999.0
20260502091232 29 0 0.0 0.0 0.00 0.00 0.00 99 1002.0
20260502090208 29 0 0.0 0.0 0.00 0.00 0.00 98 1002.0
20260502070744 39 0 0.0 0.0 0.00 0.00 0.00 40 988.0
20260502065720 40 0 0.0 0.0 0.00 0.00 0.00 37 986.0
20260502064656 40 0 0.0 0.0 0.00 0.00 0.00 37 986.0
20260502063632 40 0 0.0 0.0 0.00 0.00 0.00 38 986.0
20260502062609 39 0 0.0 0.0 0.00 0.00 0.00 39 987.0
20260502061544 40 0 0.0 0.0 0.00 0.00 0.00 38 986.0
20260502060521 40 0 0.0 0.0 0.00 0.00 0.00 40 987.0
20260502055457 40 0 0.0 0.0 0.00 0.00 0.00 39 987.0
20260502054433 40 0 0.0 0.0 0.00 0.00 0.00 41 989.0
20260502053409 38 0 0.0 0.0 0.00 0.00 0.00 42 989.0
20260502052344 38 0 0.0 0.0 0.00 0.00 0.00 42 989.0
20260502051320 39 0 0.0 0.0 0.00 0.00 0.00 41 989.0
20260502050256 38 0 0.0 0.0 0.00 0.00 0.00 43 990.0
20260502045232 37 0 0.0 0.0 0.00 0.00 0.00 44 991.0
20260502044208 38 0 0.0 0.0 0.00 0.00 0.00 44 990.0
20260502043144 39 0 0.0 0.0 0.00 0.00 0.00 42 989.0
20260502042121 38 0 0.0 0.0 0.00 0.00 0.00 44 990.0
20260502041056 38 0 0.0 0.0 0.00 0.00 0.00 46 991.0
20260502040032 38 0 0.0 0.0 0.00 0.00 0.00 48 992.0
20260502035008 37 0 0.0 0.0 0.00 0.00 0.00 51 994.0
20260502033944 36 0 0.0 0.0 0.00 0.00 0.00 51 994.0
20260502032921 37 0 0.0 0.0 0.00 0.00 0.00 51 993.0
20260502031857 36 0 0.0 0.0 0.00 0.00 0.00 56 996.0
20260502030833 36 0 0.0 0.0 0.00 0.00 0.00 58 997.0
20260502025809 35 0 0.0 0.0 0.00 0.00 0.00 61 998.0
20260502024745 35 0 0.0 0.0 0.00 0.00 0.00 62 999.0
20260502023721 35 0 0.0 0.0 0.00 0.00 0.00 66 1000.0
20260502022657 35 0 0.0 0.0 0.00 0.00 0.00 66 1000.0
20260502021633 35 0 0.0 0.0 0.00 0.00 0.00 72 1003.0
20260502020609 34 0 0.0 0.0 0.00 0.00 0.00 72 1003.0
20260502015545 33 0 0.0 0.0 0.00 0.00 0.00 71 1002.0
20260502014521 33 0 0.0 0.0 0.00 0.00 0.00 71 1002.0
20260502013457 33 0 0.0 0.0 0.00 0.00 0.00 76 1003.0
20260502012433 33 0 0.0 0.0 0.00 0.00 0.00 76 1003.0
20260502011409 33 0 0.0 0.0 0.00 0.00 0.00 78 1003.0
20260502010345 33 0 0.0 0.0 0.00 0.00 0.00 76 1002.0
20260502005321 33 0 0.0 0.0 0.00 0.00 0.00 78 1003.0
20260502004257 34 0 0.0 0.0 0.00 0.00 0.00 76 1002.0
20260502003233 33 0 0.0 0.0 0.00 0.00 0.00 82 1002.0
20260502002209 32 0 0.0 0.0 0.00 0.00 0.00 95 1004.0
20260502001145 31 0 0.0 0.0 0.00 0.00 0.00 99 1005.0
20260502000121 30 0 0.0 0.0 0.00 0.00 0.00 99 1005.0
20260501235057 29 0 0.0 0.0 0.00 0.00 0.00 99 1005.0
20260501234033 28 0 0.0 0.0 0.00 0.00 0.00 99 1005.0
20260501233009 27 0 0.0 0.0 0.00 0.00 0.00 99 1005.0
20260501231945 27 0 0.0 0.0 0.00 0.00 0.00 99 1004.0
20260501230921 27 0 0.0 0.0 0.00 0.00 0.00 99 1005.0
20260501225857 27 0 0.0 0.0 0.00 0.00 0.00 99 1005.0
20260501224833 27 0 0.0 0.0 0.00 0.00 0.00 99 1005.0
20260501223809 26 0 0.0 0.0 0.00 0.00 0.00 99 1005.0
20260501222746 26 0 0.0 0.0 0.00 0.00 0.00 99 1005.0
20260501221722 26 0 0.0 0.0 0.00 0.00 0.00 99 1004.0
20260501220658 26 0 0.0 0.0 0.00 0.00 0.00 99 1004.0
20260501215634 27 0 0.0 0.0 0.00 0.00 0.00 99 1004.0
20260501214610 27 0 0.0 0.0 0.00 0.00 0.00 99 1004.0
20260501213546 27 0 0.0 0.0 0.00 0.00 0.00 99 1004.0
20260501212522 26 0 0.0 0.0 0.00 0.00 0.00 99 1004.0
20260501211458 26 0 0.0 0.0 0.00 0.00 0.00 99 1004.0
20260501210434 26 0 0.0 0.0 0.00 0.00 0.00 99 1004.0
20260501205410 26 0 0.0 0.0 0.00 0.00 0.00 99 1004.0
20260501204346 26 0 0.0 0.0 0.00 0.00 0.00 99 1004.0
20260501203322 26 0 0.0 0.0 0.00 0.00 0.00 99 1004.0
20260501202258 26 0 0.0 0.0 0.00 0.00 0.00 99 1004.0
20260501201234 26 0 0.0 0.0 0.00 0.00 0.00 99 1004.0
20260501200211 26 0 0.0 0.0 0.00 0.00 0.00 99 1004.0
20260501195146 26 0 0.0 0.0 0.00 0.00 0.00 99 1004.0
20260501194122 27 0 0.0 0.0 0.00 0.00 0.00 99 1004.0
20260501193058 27 0 0.0 0.0 0.00 0.00 0.00 99 1003.0
20260501192034 27 0 0.0 0.0 0.00 0.00 0.00 99 1004.0
20260501191010 27 0 0.0 0.0 0.00 0.00 0.00 99 1004.0
20260501185946 27 0 0.0 0.0 0.00 0.00 0.00 99 1004.0
20260501184922 27 0 0.0 0.0 0.00 0.00 0.00 99 1004.0
20260501183858 27 0 0.0 0.0 0.00 0.00 0.00 99 1004.0
20260501182834 27 0 0.0 0.0 0.00 0.00 0.00 99 1004.0
20260501181810 27 0 0.0 0.0 0.00 0.00 0.00 99 1004.0
20260501180746 27 0 0.0 0.0 0.00 0.00 0.00 99 1005.0
20260501175722 27 0 0.0 0.0 0.00 0.00 0.00 99 1005.0
20260501174658 27 0 0.0 0.0 0.00 0.00 0.00 99 1005.0
20260501173634 27 0 0.0 0.0 0.00 0.00 0.00 99 1005.0
20260501172610 27 0 0.0 0.0 0.00 0.00 0.00 99 1005.0
20260501171546 28 0 0.0 0.0 0.00 0.00 0.00 99 1005.0
20260501170522 28 0 0.0 0.0 0.00 0.00 0.00 99 1005.0
20260501165458 27 0 0.0 0.0 0.00 0.00 0.00 99 1006.0
20260501164434 27 0 0.0 0.0 0.00 0.00 0.00 99 1006.0
20260501163410 28 0 0.0 0.0 0.00 0.00 0.00 99 1006.0
20260501162346 28 0 0.0 0.0 0.00 0.00 0.00 99 1005.0
20260501161322 28 0 0.0 0.0 0.00 0.00 0.00 99 1005.0
20260501160258 28 0 0.0 0.0 0.00 0.00 0.00 99 1006.0
20260501155235 28 0 0.0 0.0 0.00 0.00 0.00 99 1006.0
20260501154210 28 0 0.0 0.0 0.00 0.00 0.00 99 1005.0
20260501153147 28 0 0.0 0.0 0.00 0.00 0.00 99 1005.0
20260501152123 28 0 0.0 0.0 0.00 0.00 0.00 99 1005.0
20260501151059 28 0 0.0 0.0 0.00 0.00 0.00 99 1005.0
20260501150035 28 0 0.0 0.0 0.00 0.00 0.00 99 1005.0
20260501145011 28 0 0.0 0.0 0.00 0.00 0.00 99 1005.0
20260501143947 28 0 0.0 0.0 0.00 0.00 0.00 99 1005.0
20260501143057 28 0 0.0 0.0 0.00 0.00 0.00 99 1005.0
20260501141948 28 0 0.0 0.0 0.00 0.00 0.00 99 1005.0
20260501140832 28 0 0.0 0.0 0.00 0.00 0.00 99 1005.0
20260501135807 28 0 0.0 0.0 0.00 0.00 0.00 99 1004.0
20260501134743 28 0 0.0 0.0 0.00 0.00 0.00 99 1004.0
20260501133719 28 0 0.0 0.0 0.00 0.00 0.00 99 1004.0